sat.trackr.live / text

‹ back to catalog

STARLINK-5989

NORAD 56781 · 2023-078Q

PAYLOAD ACTIVE UNKNOWN

§ Identity

Operator
Country
US
Launch date
2023-05-31
Launch site
AFWTR
Launch vehicle
Mass (kg)
RCS (m²)

Purposes: comms

External: N2YO · Heavens-Above · Gunter

§ Orbital elements

Epoch: 2026-05-25T02:21:39.964608Z

Period
96.11 min
Inclination
69.9985°
Eccentricity
0.0003598
Mean motion
14.98331229 rev/d
Perigee alt
569.6 km
Apogee alt
574.6 km
Semi-major
6,950.2 km
B*
5.5068e-5
RAAN
151.8772°
Arg perigee
267.9464°
Mean anomaly
92.1283°
Rev number
16,412

§ Raw data

STARLINK-59891 56781U 23078Q   26145.09837922  .00000564  00000+0  55068-4 0  99972 56781  69.9985 151.8772 0003598 267.9464  92.1283 14.98331229164120

JSON: /api/v1/satellites/56781 · /tle

For live sub-satellite position, see the globe view (requires WebGL).

§ Visibility from observer

Set your observer location to see the next 7 days of passes ≥ 10°. The values pass through the URL so the page stays shareable.

No JS? Fill the form by hand. The geolocation button needs JavaScript.